Tracking 31027 objects as of 19-Jul-2025
HD Live streaming from Space Station
objects crossing your sky now

STARLINK-31551

Track STARLINK-31551 now!
10-day predictions
STARLINK-31551 is classified as:


NORAD ID: 59191
Int'l Code: 2024-045P
Perigee: 471.5 km
Apogee: 476.4 km
Inclination: 43.0 °
Period: 93.9 minutes
Semi major axis: 6844 km
RCS: Unknown
Launch date: March 10, 2024
Source: United States (US)
Launch site: AIR FORCE EASTERN TEST RANGE (AFETR)
Your satellite tracking list
RESURS O1 DEB
Track 1 satellite(s)




NASA's NSSDC Master Catalog

Two Line Element Set (TLE):
1 59191U 24045P   25199.70857926 -.00002430  00000-0 -66036-4 0  9996
2 59191  43.0026 330.8049 0003562 299.2183  60.8315 15.33010398 77414
Source of the keplerian elements: AFSPC